TimeEST,TemperatureF,Dew PointF,Humidity,Sea Level PressureIn,VisibilityMPH,Wind Direction,Wind SpeedMPH,Gust SpeedMPH,PrecipitationIn,Events,Conditions,WindDirDegrees,DateUTC
12:54 AM,27.0,19.0,72,30.46,10.0,Calm,Calm,-,N/A,,Overcast,0,2013-11-29 05:54:00
1:54 AM,27.0,19.9,75,30.46,10.0,Calm,Calm,-,N/A,,Overcast,0,2013-11-29 06:54:00
2:54 AM,27.0,19.0,72,30.47,10.0,Calm,Calm,-,N/A,,Overcast,0,2013-11-29 07:54:00
3:54 AM,27.0,19.9,75,30.48,10.0,Calm,Calm,-,N/A,,Overcast,0,2013-11-29 08:54:00
4:54 AM,27.0,21.0,78,30.49,10.0,Calm,Calm,-,N/A,,Overcast,0,2013-11-29 09:54:00
5:54 AM,25.0,19.9,81,30.51,10.0,Calm,Calm,-,N/A,,Mostly Cloudy,0,2013-11-29 10:54:00
6:54 AM,24.1,19.9,84,30.54,10.0,Calm,Calm,-,N/A,,Scattered Clouds,0,2013-11-29 11:54:00
7:54 AM,25.0,21.0,85,30.57,10.0,Calm,Calm,-,N/A,,Overcast,0,2013-11-29 12:54:00
8:08 AM,24.8,21.2,86,30.55,10.0,Calm,Calm,-,N/A,,Overcast,0,2013-11-29 13:08:00
8:54 AM,26.1,21.9,84,30.59,10.0,WNW,3.5,-,N/A,,Overcast,300,2013-11-29 13:54:00
9:54 AM,30.0,21.9,72,30.61,10.0,WSW,5.8,-,N/A,,Partly Cloudy,250,2013-11-29 14:54:00
10:25 AM,30.2,19.4,64,30.60,10.0,WSW,5.8,-,N/A,,Mostly Cloudy,250,2013-11-29 15:25:00
10:54 AM,30.0,19.9,66,30.63,10.0,WSW,5.8,-,N/A,,Overcast,240,2013-11-29 15:54:00
11:17 AM,30.2,17.6,60,30.60,10.0,North,8.1,-,N/A,,Overcast,350,2013-11-29 16:17:00
11:54 AM,32.0,17.1,54,30.62,10.0,NW,5.8,-,N/A,,Scattered Clouds,320,2013-11-29 16:54:00
12:54 PM,30.9,16.0,54,30.63,10.0,North,3.5,-,N/A,,Mostly Cloudy,350,2013-11-29 17:54:00
1:54 PM,32.0,15.1,50,30.63,10.0,NNW,6.9,-,N/A,,Overcast,330,2013-11-29 18:54:00
2:54 PM,30.9,16.0,54,30.65,10.0,NNW,5.8,-,N/A,,Mostly Cloudy,330,2013-11-29 19:54:00
3:54 PM,28.9,16.0,58,30.67,10.0,WNW,4.6,-,N/A,,Mostly Cloudy,300,2013-11-29 20:54:00
4:54 PM,28.0,16.0,61,30.69,10.0,WNW,3.5,-,N/A,,Scattered Clouds,300,2013-11-29 21:54:00
5:54 PM,28.0,16.0,61,30.71,10.0,Calm,Calm,-,N/A,,Scattered Clouds,0,2013-11-29 22:54:00
6:54 PM,25.0,16.0,69,30.73,10.0,Calm,Calm,-,N/A,,Clear,0,2013-11-29 23:54:00
7:54 PM,24.1,17.1,75,30.74,10.0,Calm,Calm,-,N/A,,Clear,0,2013-11-30 00:54:00
8:54 PM,21.9,16.0,78,30.74,10.0,Calm,Calm,-,N/A,,Clear,0,2013-11-30 01:54:00
9:54 PM,21.0,15.1,78,30.74,10.0,Calm,Calm,-,N/A,,Clear,0,2013-11-30 02:54:00
10:54 PM,19.0,14.0,81,30.75,10.0,Calm,Calm,-,N/A,,Clear,0,2013-11-30 03:54:00
11:54 PM,17.1,14.0,88,30.76,10.0,NW,3.5,-,N/A,,Clear,310,2013-11-30 04:54:00